Weather Roundup
Issued by NWS

Home | Current Version | Previous Version | Graphics & Text | Print | Product List | Glossary Off
Versions: 1 2 3 4 5 6 7 8 9 10 11 12 13 14 15 16 17 18 19 20 21 22 23 24 25 26 27 28 29 30 31 32 33 34 35 36 37 38 39 40 41 42 43 44 45 46 47 48 49 50

000
NZUS93 KARX 220410
HRRWXR

CURRENT HOURLY OBSERVATIONS ACROSS
MUCH OF THE UPPER MISSISSIPPI VALLEY
NATIONAL WEATHER SERVICE LA CROSSE WI
1000 PM CST SUN DEC 21 2014


...SOUTHEAST MINNESOTA...


CITY           SKY/WX    TMP DP  RH WIND       PRES   REMARKS
ROCHESTER      LGT RAIN  36  35  96 S14G25    29.77S FOG     WCI  27
ROCHESTER/MAYO CLOUDY    37  37  99 SE14G21   29.77S WCI  28
WINONA         LGT RAIN  37  34  87 SE10G17   29.82R WCI  30
AUSTIN         DRIZZLE   37  36  93 S9        29.75S WCI  31
ALBERT LEA     FOG       37  37 100 S13       29.73S VSB 3/4 WCI  29
DODGE CENTER   LGT RAIN  37  37 100 S14       29.75S WCI  29
PRESTON        CLOUDY    35  34  96 S18G24    29.79R FOG     WCI  25
OWATONNA       CLOUDY    37  36  93 S14G21    29.73S FOG     WCI  29
FARIBAULT      CLOUDY    37  37 100 SE16      29.72F WCI  28
$$

...ELSEWHERE IN MINNESOTA...


CITY           SKY/WX    TMP DP  RH WIND       PRES   REMARKS
MINNEAPOLIS    CLOUDY    38  35  89 S12       29.73S WCI  30
INTNL FALLS    CLOUDY    32  30  92 SE9       29.66F WCI  24
DULUTH         CLOUDY    34  32  92 SE7       29.71S FOG     WCI  28
RED WING       RAIN      39  37  93 S8        29.76F WCI  34
REDWOOD FALLS  CLOUDY    38  36  92 SE14      29.62F WCI  30
MANKATO        CLOUDY    37  34  87 S13       29.70S WCI  29
WORTHINGTON    CLOUDY    37 -11  12 S15G22    29.61F WCI  28
FAIRMONT       CLOUDY    37  34  87 S15       29.68S WCI  28
$$

...SOUTHWEST WISCONSIN...


CITY           SKY/WX    TMP DP  RH WIND       PRES   REMARKS
LA CROSSE      CLOUDY    39  35  86 S16       29.84R WCI  30
PRAIRIE DU CHI CLOUDY    37  32  83 SE10      29.88S WCI  29
BOSCOBEL       CLOUDY    37  32  82 S8G16     29.90F HAZE    WCI  31
LONE ROCK      CLOUDY    39  30  70 S8        29.93F WCI  33
PLATTEVILLE    CLOUDY    35  32  90 SE15      29.91F WCI  25
FORT MC COY    CLOUDY    37  33  87 S10       29.87R WCI  29
CAMP DOUGLAS   CLOUDY    35  35 100 SE16G23   29.87F WCI  26
VIROQUA        CLOUDY    34  34 100 S15       29.85F WCI  24
WIS DELLS      CLOUDY    34  31  86 S15       29.91F FOG     WCI  25
$$

...ELSEWHERE IN WISCONSIN...


CITY           SKY/WX    TMP DP  RH WIND       PRES   REMARKS
MILWAUKEE      CLOUDY    37  29  72 S15       30.02F WCI  28
MADISON        CLOUDY    35  30  82 S13       29.96S WCI  26
GREEN BAY      CLOUDY    36  30  79 S18G24    29.97S WCI  26
EAU CLAIRE     CLOUDY    37  35  92 S12       29.79S WCI  29
BLACK RVR FLS  CLOUDY    38  36  93 S6        29.84S WCI  33
MEDFORD        CLOUDY    32  32  99 S13       29.82S FOG     WCI  23
WAUSAU         CLOUDY    33  32  96 S15       29.86S FOG     WCI  23
WIS RAPIDS     CLOUDY    35  31  85 S9        29.90S WCI  28
MARSHFIELD     MIX PCPN  35  32  88 S15       29.85S FOG     WCI  25
RICE LAKE      DRIZZLE   35  34  97 SE6       29.78F WCI  30
$$

...NORTHEAST IOWA...


CITY           SKY/WX    TMP DP  RH WIND       PRES   REMARKS
DECORAH        CLOUDY    36  36 100 S15G22    29.81S FOG     WCI  26
MASON CITY     CLOUDY    38  37  97 S15       29.75F FOG     WCI  29
CHARLES CITY   CLOUDY    37  37 100 SE15G22   29.79S WCI  28
OELWEIN        CLOUDY    36  36 100 SE18      29.83S FOG     WCI  25
$$

...ELSEWHERE IN IOWA...


CITY           SKY/WX    TMP DP  RH WIND       PRES   REMARKS
DES MOINES     CLOUDY    44  39  82 S17       29.77F
IOWA CITY      CLOUDY    38  34  85 SE13      29.89F WCI  30
FORT DODGE     CLOUDY    39  36  87 S10G18    29.72F WCI  32
$$

...NORTHERN ILLINOIS...


CITY           SKY/WX    TMP DP  RH WIND       PRES   REMARKS
CHICAGO-OHARE  MOCLDY    34  28  79 S12       30.03F WCI  25
CHICAGO-MIDWAY CLOUDY    35  28  75 SE9       30.04F WCI  28
MOLINE         CLOUDY    36  31  82 SE16      29.92F WCI  26
ROCKFORD       CLOUDY    36  29  75 S12       30.01S WCI  28
PEORIA         LGT RAIN  37  30  75 SE9       29.98F WCI  30
$$

NOTE: "FAIR" INDICATES FEW OR NO CLOUDS BELOW 12,000 FEET WITH NO
SIGNIFICANT WEATHER AND/OR OBSTRUCTIONS TO VISIBILITY. WIND
SPEEDS ARE IN MILES-PER-HOUR.



USA.gov is the U.S. government's official web portal to all federal, state and local government web resources and services.